FW5647 Weather Reports


Display with metric or nautical units.
time (UTC)temp
F
wind
direction
speed
MPH
gust
MPH
rain 1hr
in
rain 24hr
in
rain mn
in
humidity
%
barometer
mb
20260831191542 85 136 3.0 11.0 0.00 0.10 0.00 66 1016.3
20260831190054 85 98 5.0 10.0 0.00 0.10 0.00 65 1016.2
20260831184547 84 104 3.0 7.0 0.00 0.10 0.00 71 1016.3
20260831183046 84 160 2.0 8.0 0.00 0.10 0.00 68 1016.6
20260831181547 84 141 3.0 8.0 0.00 0.10 0.00 69 1016.6
20260831180049 82 158 1.0 5.0 0.00 0.10 0.00 73 1016.9
20260831174541 80 108 3.0 5.0 0.00 0.10 0.00 76 1016.9
20260831173040 79 149 2.0 4.0 0.00 0.10 0.00 78 1017.2
20260831171546 77 160 0.0 2.0 0.00 0.10 0.00 83 1017.3
20260831170040 75 0 0.0 2.0 0.00 0.10 0.00 88 1017.5
20260831164555 75 116 2.0 3.0 0.00 0.10 0.00 89 1017.0
20260831163040 75 0 0.0 0.0 0.00 0.10 0.00 87 1018.2
20260831161547 74 0 0.0 0.0 0.00 0.10 0.00 90 1018.4
20260831160043 74 0 0.0 1.0 0.00 0.10 0.00 87 1018.5
20260831154649 75 0 0.0 2.0 0.00 0.11 0.00 83 1018.4
20260831153049 76 246 1.0 5.0 0.00 0.11 0.00 80 1018.1
20260831151540 76 262 2.0 6.0 0.00 0.11 0.00 80 1018.0
20260831150042 75 308 1.0 6.0 0.00 0.11 0.00 82 1017.9
20260831144548 75 250 1.0 5.0 0.00 0.17 0.00 82 1017.8
20260831143105 76 258 2.0 8.0 0.00 0.17 0.00 82 1017.5
20260831141553 74 235 2.0 6.0 0.00 0.17 0.00 85 1017.4
20260831140052 74 280 1.0 5.0 0.00 0.17 0.00 85 1017.6
20260831134542 73 263 1.0 4.0 0.00 0.31 0.00 86 1017.5
20260831133047 73 268 2.0 5.0 0.00 0.31 0.00 85 1017.3
20260831131539 73 214 0.0 5.0 0.00 0.31 0.00 87 1017.1
20260831130043 72 180 0.0 4.0 0.00 0.31 0.00 88 1017.3
20260831124539 72 217 1.0 4.0 0.00 0.40 0.00 88 1017.0
20260831123041 71 0 1.0 3.0 0.00 0.40 0.00 90 1017.1
20260831121542 70 0 0.0 1.0 0.00 0.40 0.00 91 1017.1
20260831120044 69 0 0.0 0.0 0.00 0.40 0.00 92 1016.8
20260831114542 69 0 0.0 0.0 0.00 0.40 0.00 92 1016.9
20260831113048 69 0 0.0 1.0 0.00 0.40 0.00 92 1016.9
20260831111541 69 0 0.0 1.0 0.00 0.40 0.00 92 1016.8
20260831110042 69 0 0.0 0.0 0.00 0.40 0.00 91 1016.9
20260831104537 69 0 0.0 0.0 0.00 0.40 0.00 91 1017.0
20260831103048 69 0 0.0 1.0 0.00 0.40 0.00 91 1016.9
20260831101551 69 0 0.0 1.0 0.00 0.40 0.00 90 1016.8
20260831100056 69 0 0.0 2.0 0.00 0.40 0.00 90 1016.8
20260831094542 70 0 0.0 2.0 0.00 0.40 0.00 89 1016.7
20260831093049 70 165 0.0 1.0 0.00 0.40 0.00 89 1016.8
20260831091541 70 0 0.0 1.0 0.00 0.40 0.00 89 1016.5
20260831090101 70 0 0.0 3.0 0.00 0.40 0.00 88 1016.7
20260831084541 70 0 0.0 3.0 0.00 0.44 0.00 89 1016.5
20260831083041 70 0 0.0 5.0 0.00 0.44 0.00 89 1016.5
20260831081542 70 0 0.0 3.0 0.00 0.44 0.00 89 1016.4
20260831080044 69 250 0.0 4.0 0.00 0.44 0.00 89 1016.3
20260831074541 69 246 0.0 2.0 0.00 0.44 0.00 90 1016.4
20260831073042 69 246 1.0 5.0 0.00 0.44 0.00 91 1016.5
20260831071541 68 255 0.0 1.0 0.00 0.44 0.00 91 1016.9
20260831070042 69 259 0.0 1.0 0.00 0.44 0.00 91 1017.1
20260831064547 69 0 0.0 1.0 0.00 0.44 0.00 92 1017.3
20260831063040 69 0 0.0 2.0 0.00 0.44 0.00 92 1017.3
20260831061553 68 0 0.0 2.0 0.00 0.44 0.00 93 1017.4
20260831060042 68 0 0.0 0.0 0.00 0.44 0.00 93 1017.5
20260831054545 68 0 0.0 0.0 0.00 0.44 0.00 93 1017.4
20260831053042 68 0 0.0 0.0 0.00 0.44 0.00 92 1017.6
20260831051549 68 0 0.0 1.0 0.00 0.44 0.00 93 1017.5
20260831050044 68 0 0.0 2.0 0.00 0.44 0.00 93 1017.4
20260831044542 68 165 0.0 3.0 0.00 0.45 0.00 93 1017.6
20260831043041 69 136 0.0 1.0 0.00 0.45 0.00 92 1017.7
20260831041542 69 0 0.0 0.0 0.00 0.45 0.00 91 1017.8
20260831040041 69 160 0.0 2.0 0.00 0.45 0.00 91 1017.9
20260831034544 69 135 0.0 2.0 0.00 0.45 0.45 91 1017.9
20260831033042 69 212 0.0 3.0 0.00 0.45 0.45 91 1017.9
20260831031545 69 204 0.0 3.0 0.00 0.45 0.45 91 1018.0
20260831030047 69 0 0.0 1.0 0.00 0.45 0.45 91 1017.7
20260831024607 69 103 0.0 2.0 0.00 0.45 0.45 91 1017.6
20260831023045 69 114 0.0 2.0 0.00 0.45 0.45 90 1017.5
20260831021540 70 114 0.0 3.0 0.00 0.45 0.45 90 1017.5
20260831020041 70 162 0.0 6.0 0.00 0.45 0.45 89 1017.3
20260831014541 70 155 1.0 4.0 0.00 0.45 0.45 89 1017.2
20260831013054 70 82 1.0 4.0 0.00 0.45 0.45 89 1017.1
20260831011542 70 115 2.0 4.0 0.00 0.45 0.45 89 1017.1
20260831010049 70 158 1.0 4.0 0.00 0.45 0.45 88 1017.1
20260831004547 70 87 3.0 6.0 0.00 0.45 0.45 88 1016.5
20260831003044 70 117 1.0 8.0 0.00 0.45 0.45 88 1016.6
20260831001541 70 104 2.0 7.0 0.00 0.45 0.45 87 1016.3
20260831000048 70 106 3.0 9.0 0.00 0.45 0.45 87 1016.5
20260830234547 70 113 3.0 8.0 0.00 0.45 0.45 87 1016.6
20260830233051 70 75 2.0 6.0 0.00 0.45 0.45 87 1017.0
20260830231540 70 65 2.0 7.0 0.00 0.45 0.45 87 1016.8
20260830230049 70 115 2.0 5.0 0.00 0.45 0.45 87 1017.1
20260830224543 70 138 2.0 5.0 0.00 0.45 0.45 88 1017.1
20260830223040 70 97 1.0 4.0 0.04 0.45 0.45 89 1017.3
20260830221545 70 103 1.0 3.0 0.10 0.45 0.45 90 1017.3
20260830220048 70 143 0.0 2.0 0.10 0.45 0.45 90 1017.5
20260830214541 70 0 0.0 3.0 0.10 0.45 0.45 88 1017.7
20260830213043 72 224 0.0 3.0 0.06 0.41 0.41 85 1018.0
20260830211541 73 0 0.0 2.0 0.00 0.35 0.35 81 1017.8
20260830210052 73 198 1.0 6.0 0.00 0.35 0.35 80 1017.5
20260830204543 73 175 0.0 5.0 0.00 0.35 0.35 80 1017.4
20260830203057 73 162 3.0 9.0 0.00 0.35 0.35 80 1017.0
20260830201547 74 131 2.0 11.0 0.00 0.35 0.35 79 1017.0
20260830200041 74 191 2.0 8.0 0.00 0.35 0.35 79 1017.4
20260830194542 74 104 4.0 10.0 0.00 0.35 0.35 79 1017.2
20260830193042 73 229 3.0 7.0 0.00 0.35 0.35 81 1017.2